CAPE
0 0 0 0 0 0 0 0 0 0 0 0 0 0 0 0 0 0 0 0 0 0
0 0 0 0 0 0 0 0 0 0 0 0 0 0 0 0 0 0 0 0 0 0
0 0 0 0 0 0 0 0 0 0 0 0 0 0 0 0 0 0 0 0 0 0
0 0 0 0 0 0 0 0 0 0 0 0 0 0 0 0 0 0 0 0 0 0
0 0 0 0 0 0 0 0 0 0 0 0 0 0 0 0 0 0 0 0 0 0
0 0 0 0 0 0 0 0 0 0 0 0 0 0 0 0 0 0 0 0 0 0
0 0 0 0 0 0 0 0 0 0 0 0 0 0 0 0 0 0 0 0 0 0
0 0 0 0 0 0 0 0 0 0 0 0 0 0 0 0 0 0 0 0 0 0
0 0 0 0 0 0 0 0 0 0 0 0 0 0 0 0 0 0 0 0 0 0
0 0 0 0 0 0 0 0 0 0 0 0 0 0 0 0 0 0 0 0 0 0
0 0 0 0 0 0 0 0 0 0 0 0 0 0 0 0 0 0 0 0 0 0
0 0 0 0 0 0 0 0 0 0 0 0 0 0 0 0 0 0 0 0 0 0
0 0 0 0 0 0 0 0 0 0 0 0 0 0 0 0 0 0 0 0 0 0
1 0 0 0 0 0 0 0 0 0 0 0 0 0 0 0 0 0 0 0 0 0
CIN
0 0 0 0 0 0 0 0 0 0 0 0 0 0 0 0 0 0 0 0 0 0
0 0 0 0 0 0 0 0 0 0 0 0 0 0 0 0 0 0 0 0 0 0
0 0 0 0 0 0 0 0 0 0 0 0 0 0 0 0 0 0 0 0 0 0
0 0 0 0 0 0 0 0 0 0 0 0 0 0 0 0 0 0 0 0 0 0
0 0 0 0 0 0 0 0 0 0 0 0 0 0 0 0 0 0 0 0 0 0
0 0 0 0 0 0 0 0 0 0 0 0 0 0 0 0 0 0 0 0 0 0
0 0 0 0 0 0 0 0 0 0 0 0 0 0 0 0 0 0 0 0 0 0
0 0 0 0 0 0 0 0 0 0 0 0 0 0 0 0 0 0 0 0 0 0
0 0 0 0 0 0 0 0 0 0 0 0 0 0 0 0 0 0 0 0 0 0
0 0 0 0 0 0 0 0 0 0 0 0 0 0 0 0 0 0 0 0 0 0
0 0 0 0 0 0 0 0 0 0 0 0 0 0 0 0 0 0 0 0 0 0
0 0 0 0 0 0 0 0 0 0 0 0 0 0 0 0 0 0 0 0 0 0
0 0 0 0 0 0 0 0 0 0 0 0 0 0 0 0 0 0 0 0 0 0
0 0 0 0 0 0 0 0 0 0 0 0 0 0 0 0 0 0 0 0 0 0
Wind_Speed
13 10 10 13 12 10 9 9 9 8 10 12 9 8 7 4 4 5 5 7 5 3
10 11 11 12 11 9 9 8 10 10 11 12 10 10 8 6 6 5 5 5 6 3
10 10 10 11 13 12 11 13 13 12 12 11 10 9 7 5 4 6 4 3 6 3
10 9 9 10 11 11 14 14 13 13 13 11 9 8 8 6 6 6 6 4 5 5
11 13 10 11 12 13 13 13 14 15 13 10 7 1 8 7 5 7 6 5 5 4
11 13 12 12 13 12 13 13 13 13 11 9 8 8 6 5 4 6 6 5 4 3
9 9 11 11 13 13 12 13 12 11 11 6 6 6 6 5 3 4 4 3 2 3
11 11 12 13 14 13 14 13 13 13 10 9 7 5 4 5 3 3 3 1 1 2
13 13 14 15 15 15 14 14 13 10 9 5 6 12 9 5 2 3 2 2 3 4
13 14 15 15 15 14 14 13 11 6 6 7 5 9 6 5 1 2 3 2 3 3
15 16 15 15 14 13 9 9 7 8 7 5 4 8 6 5 2 3 3 2 1 2
13 14 14 13 10 10 9 6 5 5 8 7 4 7 6 4 3 2 2 3 3 4
10 12 13 12 9 6 7 6 6 4 5 7 5 7 4 5 2 1 2 4 4 9
10 11 10 9 7 8 7 6 5 5 3 3 3 3 1 3 4 3 2 3 3 3
Wind_Direction
181 176 173 172 164 170 171 168 158 159 147 136 145 137 135 120 124 128 128 133 127 131
167 166 170 159 158 154 147 149 152 149 148 133 146 141 144 143 135 138 138 145 136 126
167 161 153 148 156 162 148 151 156 146 136 131 137 138 134 130 143 134 137 150 139 132
151 146 153 159 151 154 150 150 151 138 135 142 148 146 132 146 148 140 140 143 148 166
146 143 159 160 155 156 142 143 138 133 126 126 126 155 135 138 158 145 156 158 148 178
155 146 163 154 149 138 135 133 130 123 126 150 158 164 108 112 136 144 161 152 173 193
141 137 138 137 130 125 123 116 116 113 114 106 102 87 92 113 131 143 107 106 139 196
107 108 115 116 106 104 100 100 107 102 91 100 103 107 108 113 163 115 98 93 39 245
99 103 103 98 103 101 99 96 90 90 111 116 121 131 126 124 152 116 112 43 340 319
106 98 94 95 93 94 98 102 99 94 87 81 81 104 119 130 80 87 57 28 349 331
96 96 92 93 96 94 92 98 94 100 119 113 190 152 137 117 101 67 45 33 359 309
111 111 113 107 101 102 100 108 120 153 165 163 151 157 150 133 88 47 342 304 321 301
106 105 106 106 97 83 124 135 132 146 123 150 169 187 182 159 151 307 297 297 311 326
81 89 96 90 121 145 122 121 103 107 85 128 186 268 254 289 202 247 324 331 317 303